User: anonymous   Login
Location: Campo Alegre
(10.1673°N, 67.4431°W)
Time: 08:19:49
(UTC+00:00)
Language:

COSMO-SKYMED 1 - Orbit

View from above orbital plane
View from above orbital plane
View from above satellite
View from above satellite

Ground track
Ground track

The orbit data is extracted from the following two-line orbital elements,

1 31598U 07023A   24169.94605772  .00000819  00000-0  10947-3 0  9992
2 31598  97.8867 353.0796 0001588  89.8789 270.2606 14.82153704921232
Epoch (UTC): 17 June 2024 22:42:19
Eccentricity: 0.0001588
inclination: 97.8867°
perigee height: 621 km
apogee height: 623 km
right ascension of ascending node: 353.0796°
argument of perigee: 89.8789°
revolutions per day: 14.82153704
mean anomaly at epoch: 270.2606°
orbit number at epoch: 92123

The dashed part of the orbit path shows where the satellite is in the earth's shadow,  

DLR